Location: Newark
(7.0858°N, 171.3717°E)
Time: 15:04:56
(UTC+00:00)

Courier 1B Rocket - Pass Details

Date: 02 December 2020
Orbit: 920 x 1202 km, 28.2° (Epoch: 20 January)

Event Time Altitude Azimuth Distance (km) Brightness Sun altitude
Rises 13:03:38 0° 235° (SW) 3,773 - -72.2°
Reaches altitude 10° 13:06:17 10° 232° (SW) 2,862 - -71.9°
Maximum altitude 13:13:18 71° 150° (SSE) 1,167 - -70.9°
Drops below altitude 10° 13:20:50 10° 67° (ENE) 3,058 - -69.7°
Sets 13:23:45 0° 65° (ENE) 4,047 - -69.2°
